Погода в Алекине

Россия / Калужская область     54°39′44″N   37°10′20″E
темп.,
°C
ветер,
м/с
пор.,
м/с
влажн.,
%
обл.,
%
осадки,
мм/ч
давл.,
гПа
погр.,
м
21 января, пт
пт2100:00−4ю71594100 0.9 1003625
03:00−4ю61395100 1.6 1002563
06:00−4ю61293100 0.5 1000490
09:00−5ююв61195100 0.9 999446
12:00−5ю51095100 1.1 998469
15:00−4ю4793100 1.6 997590
18:00−7ююв3895100 0.0 998162
21:00−9ююв41096100 0.0 998200
22 января, сб
сб2200:00−8ююв51193100 0.0 998328
03:00−6юв41095100 0.2 998315
06:00−4ю4895100 0.6 999377
09:00−7ююв2397100 0.8 100264
12:00−4ю259291 0.1 1005451
15:00−4ю259185 0.2 1007423
18:00−6юв259799 0.1 1009110
21:00−8юв259780 0.3 1012103
23 января, вс
вс2300:00−11юв229861 0.1 101528
03:00−16юв2210095 0.1 101811
06:00−18вюв2110097 0.0 102110
09:00−19в11100100 0.1 10259
12:00−10в129590 0.0 102795
15:00−8всв229514 0.1 102899
18:00−16всв1110079 0.0 10329
21:00−18всв11100100 0.0 10349
24 января, пн
пн2400:00−20ссв11100100 0.0 10369
03:00−21св11100100 0.1 103810
06:00−22с22100100 0.0 103817
09:00−22св22100100 0.1 103818
12:00−12всв239696 0.0 1038135
15:00−9ссв249564 0.0 1036170
18:00−17св2210087 0.0 10379
21:00−20св11100100 0.0 10379
25 января, вт
вт2500:00−20св11100100 0.0 10369
03:00−20в00100100 0.1 10359
06:00−20ю11100100 0.0 10339
09:00−20ю22100100 0.1 103221
12:00−11ююз239362 0.0 1029149
15:00−9ююз36925 0.0 1026216
18:00−14ююз369713 0.0 102663
21:00−16ююз36976 0.0 102578